TimeEST,TemperatureF,Dew PointF,Humidity,Sea Level PressureIn,VisibilityMPH,Wind Direction,Wind SpeedMPH,Gust SpeedMPH,PrecipitationIn,Events,Conditions,WindDirDegrees,DateUTC
12:08 AM,39.2,39.2,100,30.15,0.8,Calm,Calm,-,N/A,,Overcast,0,2013-01-13 05:08:00
12:53 AM,39.9,39.9,100,30.15,0.5,Calm,Calm,-,N/A,Fog,Fog,0,2013-01-13 05:53:00
1:26 AM,41.0,41.0,100,30.15,0.5,Calm,Calm,-,N/A,Fog,Fog,0,2013-01-13 06:26:00
1:43 AM,39.2,39.2,100,30.15,1.0,Calm,Calm,-,N/A,,Mist,0,2013-01-13 06:43:00
1:53 AM,39.9,39.9,100,30.15,1.0,Calm,Calm,-,N/A,,Overcast,0,2013-01-13 06:53:00
2:02 AM,39.2,39.2,100,30.15,0.8,Calm,Calm,-,N/A,,Mist,0,2013-01-13 07:02:00
2:11 AM,39.2,39.2,100,30.15,1.0,Calm,Calm,-,N/A,,Overcast,0,2013-01-13 07:11:00
2:26 AM,41.0,41.0,100,30.15,0.8,Calm,Calm,-,N/A,,Overcast,0,2013-01-13 07:26:00
2:36 AM,41.0,41.0,100,30.15,1.2,Calm,Calm,-,N/A,,Overcast,0,2013-01-13 07:36:00
2:53 AM,39.9,39.9,100,30.15,0.8,Calm,Calm,-,N/A,,Overcast,0,2013-01-13 07:53:00
3:17 AM,39.2,39.2,100,30.14,0.8,Calm,Calm,-,N/A,,Mist,0,2013-01-13 08:17:00
3:38 AM,39.2,39.2,100,30.13,0.8,Calm,Calm,-,N/A,,Mist,0,2013-01-13 08:38:00
3:48 AM,39.2,39.2,100,30.12,0.8,ENE,3.5,-,N/A,,Mist,70,2013-01-13 08:48:00
3:53 AM,39.9,39.0,97,30.12,0.5,ENE,3.5,-,N/A,Fog,Fog,70,2013-01-13 08:53:00
4:53 AM,41.0,41.0,100,30.12,0.5,Variable,3.5,-,N/A,Fog,Fog,0,2013-01-13 09:53:00
5:33 AM,41.0,41.0,100,30.13,1.0,Calm,Calm,-,N/A,,Overcast,0,2013-01-13 10:33:00
5:40 AM,42.8,42.8,100,30.13,0.8,Calm,Calm,-,N/A,,Overcast,0,2013-01-13 10:40:00
5:53 AM,42.1,42.1,100,30.13,0.5,Calm,Calm,-,N/A,Fog,Fog,0,2013-01-13 10:53:00
6:53 AM,39.9,39.9,100,30.14,0.8,Calm,Calm,-,N/A,,Mist,0,2013-01-13 11:53:00
7:53 AM,41.0,39.9,96,30.14,0.2,Calm,Calm,-,N/A,Fog,Fog,0,2013-01-13 12:53:00
8:10 AM,42.8,41.0,93,30.15,0.5,Calm,Calm,-,N/A,Fog,Fog,0,2013-01-13 13:10:00
8:46 AM,42.8,42.8,100,30.15,0.5,South,4.6,-,N/A,Fog,Fog,170,2013-01-13 13:46:00
8:53 AM,42.1,42.1,100,30.15,0.8,South,6.9,-,N/A,,Overcast,180,2013-01-13 13:53:00
9:03 AM,42.8,42.8,100,30.15,2.0,South,6.9,-,N/A,,Overcast,180,2013-01-13 14:03:00
9:12 AM,42.8,42.8,100,30.15,4.0,South,4.6,-,N/A,,Overcast,180,2013-01-13 14:12:00
9:32 AM,42.8,42.8,100,30.16,2.0,South,5.8,-,N/A,,Overcast,180,2013-01-13 14:32:00
9:39 AM,42.8,42.8,100,30.15,1.5,South,3.5,-,N/A,,Overcast,170,2013-01-13 14:39:00
9:53 AM,42.1,42.1,100,30.15,1.2,South,5.8,-,N/A,,Overcast,170,2013-01-13 14:53:00
10:11 AM,42.8,42.8,100,30.16,2.0,South,3.5,-,N/A,,Overcast,190,2013-01-13 15:11:00
10:53 AM,43.0,43.0,100,30.15,2.5,SSW,3.5,-,N/A,,Overcast,200,2013-01-13 15:53:00
11:18 AM,44.6,44.6,100,30.14,4.0,South,4.6,-,N/A,,Overcast,180,2013-01-13 16:18:00
11:53 AM,44.1,43.0,96,30.12,4.0,South,5.8,-,N/A,,Overcast,180,2013-01-13 16:53:00
12:53 PM,46.0,45.0,96,30.10,5.0,Variable,3.5,-,N/A,,Overcast,0,2013-01-13 17:53:00
1:25 PM,48.2,44.6,87,30.09,7.0,South,5.8,-,N/A,,Partly Cloudy,180,2013-01-13 18:25:00
1:53 PM,48.9,46.0,90,30.07,10.0,South,6.9,-,N/A,,Mostly Cloudy,180,2013-01-13 18:53:00
2:53 PM,51.1,46.0,83,30.05,10.0,South,6.9,-,N/A,,Overcast,190,2013-01-13 19:53:00
3:53 PM,48.9,44.1,83,30.06,10.0,South,3.5,-,N/A,,Overcast,190,2013-01-13 20:53:00
4:49 PM,46.4,44.6,93,30.05,10.0,South,6.9,-,N/A,,Mostly Cloudy,180,2013-01-13 21:49:00
4:53 PM,48.0,45.0,89,30.05,10.0,South,8.1,-,N/A,,Mostly Cloudy,180,2013-01-13 21:53:00
5:00 PM,46.4,44.6,93,30.04,10.0,South,8.1,-,N/A,,Overcast,180,2013-01-13 22:00:00
5:53 PM,48.0,46.0,93,30.04,10.0,SSW,5.8,-,N/A,,Overcast,200,2013-01-13 22:53:00
6:08 PM,48.2,46.4,93,30.03,10.0,South,8.1,-,N/A,,Overcast,190,2013-01-13 23:08:00
6:53 PM,48.0,46.0,93,30.06,10.0,Calm,Calm,-,N/A,,Overcast,0,2013-01-13 23:53:00
7:01 PM,48.2,44.6,87,30.05,9.0,Calm,Calm,-,N/A,,Overcast,0,2013-01-14 00:01:00
7:53 PM,48.0,46.0,93,30.05,8.0,South,4.6,-,N/A,,Overcast,190,2013-01-14 00:53:00
8:36 PM,46.4,46.4,100,30.04,2.5,SSW,4.6,-,N/A,,Overcast,210,2013-01-14 01:36:00
8:53 PM,46.9,46.9,100,30.04,3.0,Calm,Calm,-,N/A,,Overcast,0,2013-01-14 01:53:00
9:15 PM,46.4,46.4,100,30.03,3.0,South,4.6,-,N/A,,Overcast,180,2013-01-14 02:15:00
9:28 PM,46.4,46.4,100,30.03,2.5,South,4.6,-,N/A,,Overcast,170,2013-01-14 02:28:00
9:53 PM,46.9,46.9,100,30.02,2.5,South,4.6,-,N/A,,Overcast,180,2013-01-14 02:53:00
10:16 PM,46.4,46.4,100,30.02,1.5,SSE,5.8,-,N/A,,Overcast,160,2013-01-14 03:16:00
10:53 PM,46.9,46.9,100,30.02,1.0,Calm,Calm,-,N/A,,Overcast,0,2013-01-14 03:53:00
11:33 PM,46.4,46.4,100,30.01,0.5,SSE,3.5,-,N/A,Fog,Fog,150,2013-01-14 04:33:00
11:53 PM,46.9,46.9,100,30.01,0.8,South,3.5,-,N/A,,Overcast,170,2013-01-14 04:53:00